1487793600.3,15647,10.63,72250.8,-3.33,-4.29,-4.37,0,*5D
1487793601.5,15648,10.69,72266.8,-3.35,-4.25,-4.41,0,*59
1487793602.73,15649,10.63,72264.8,-3.33,-4.41,-4.41,0,*5C
1487793603.96,15650,10.69,72276.5,-3.33,-4.25,-4.29,0,*58
1487793605.18,15651,10.63,72294.0,-3.33,-4.37,-4.37,0,*55
1487793606.41,15652,10.69,72308.5,-3.33,-4.29,-4.37,0,*59
1487793607.63,15653,10.69,72300.5,-3.33,-4.37,-4.37,0,*57
1487793608.86,15654,10.63,72282.3,-3.33,-4.29,-4.37,0,*5F
1487793610.07,15655,10.63,72266.5,-3.35,-4.25,-4.25,0,*57
1487793611.3,15656,10.69,72272.0,-3.33,-4.25,-4.29,0,*5E
1487793612.51,15657,10.63,72278.8,-3.35,-4.29,-4.37,0,*5A
1487793613.71,15658,10.69,72282.0,-3.35,-4.25,-4.29,0,*56
1487793614.94,15659,10.69,72284.3,-3.33,-4.25,-4.29,0,*51
1487793616.18,15660,10.69,72284.8,-3.33,-4.25,-4.25,0,*57
1487793617.38,15661,10.63,72282.5,-3.35,-4.17,-4.25,0,*51
1487793618.61,15662,10.69,72298.8,-3.33,-4.17,-4.25,0,*54
1487793619.83,15663,10.69,72314.5,-3.33,-4.17,-4.25,0,*55
1487793621.06,15664,10.69,72318.3,-3.33,-4.17,-4.29,0,*5E
1487793622.28,15665,10.63,72342.5,-3.33,-4.17,-4.17,0,*52
1487793623.5,15666,10.69,72350.0,-3.33,-4.17,-4.17,0,*51
1487793624.73,15667,10.63,72356.5,-3.33,-4.17,-4.25,0,*51
1487793625.96,15668,10.69,72364.5,-3.33,-4.25,-4.29,0,*53
1487793627.19,15669,10.63,72352.3,-3.33,-4.25,-4.29,0,*52
1487793628.42,15670,10.69,72342.5,-3.33,-4.25,-4.37,0,*55
1487793629.65,15671,10.63,72320.5,-3.33,-4.41,-4.49,0,*5F
1487793630.87,15672,10.69,72306.5,-3.33,-4.37,-4.49,0,*5D
1487793632.09,15673,10.69,72300.8,-3.33,-4.37,-4.49,0,*5C
1487793633.32,15674,10.63,72296.0,-3.33,-4.29,-4.29,0,*52
1487793634.55,15675,10.69,72290.5,-3.33,-4.17,-4.25,0,*52
1487793635.77,15676,10.69,72292.3,-3.33,-4.29,-4.37,0,*5F
1487793637.0,15677,10.63,72298.8,-3.29,-4.21,-4.33,0,*59
1487793638.23,15678,10.69,72298.8,-3.33,-4.25,-4.29,0,*52
1487793639.44,15679,10.69,72294.5,-3.35,-4.25,-4.29,0,*55
1487793640.67,15680,10.69,72298.3,-3.33,-4.25,-4.25,0,*59
1487793641.9,15681,10.69,72304.8,-3.33,-4.25,-4.17,0,*59
1487793643.13,15682,10.63,72306.0,-3.33,-4.29,-4.37,0,*54
1487793644.33,15683,10.69,72312.5,-3.35,-4.25,-4.29,0,*50
1487793645.56,15684,10.63,72328.8,-3.33,-4.25,-4.29,0,*51
1487793646.8,15685,10.63,72324.5,-3.33,-4.25,-4.29,0,*50
1487793648.03,15686,10.69,72324.0,-3.33,-4.25,-4.29,0,*53
1487793649.25,15687,10.69,72320.0,-3.33,-4.29,-4.29,0,*5E
1487793650.49,15688,10.69,72338.3,-3.33,-4.25,-4.37,0,*52
1487793651.71,15689,10.69,72346.8,-3.29,-4.33,-4.37,0,*5F
1487793652.94,15690,10.63,72314.5,-3.29,-4.33,-4.37,0,*57
1487793654.17,15691,10.69,72340.5,-3.33,-4.29,-4.37,0,*56
1487793655.38,15692,10.63,72336.5,-3.35,-4.29,-4.37,0,*53
1487793656.6,15693,10.69,72328.8,-3.33,-4.29,-4.37,0,*54
1487793657.81,15694,10.69,72322.3,-3.35,-4.29,-4.37,0,*55
1487793659.04,15695,10.69,72320.3,-3.33,-4.25,-4.29,0,*51
1487793660.27,15696,10.69,72324.8,-3.33,-4.29,-4.29,0,*5E
1487793661.5,15697,10.63,72330.8,-3.33,-4.29,-4.37,0,*50
1487793662.72,15698,10.69,72332.0,-3.33,-4.29,-4.41,0,*5E
1487793663.95,15699,10.69,72318.8,-3.33,-4.37,-4.49,0,*58
1487793665.17,15700,10.69,72290.5,-3.33,-4.29,-4.41,0,*5E
1487793666.39,15701,10.69,72286.5,-3.33,-4.37,-4.41,0,*50
1487793667.62,15702,10.69,72276.8,-3.33,-4.29,-4.49,0,*54
1487793668.85,15703,10.69,72294.0,-3.33,-4.29,-4.37,0,*5C
1487793670.07,15704,10.69,72280.0,-3.29,-4.13,-4.25,0,*5A
1487793671.28,15705,10.69,72274.3,-3.35,-4.29,-4.37,0,*5C
1487793672.5,15706,10.69,72272.5,-3.33,-4.37,-4.29,0,*59
1487793673.72,15707,10.69,72252.3,-3.33,-4.41,-4.41,0,*57
1487793674.95,15708,10.69,72246.8,-3.33,-4.41,-4.49,0,*50
1487793676.17,15709,10.69,72250.8,-3.33,-4.37,-4.41,0,*58
1487793677.4,15710,10.69,72248.3,-3.33,-4.41,-4.41,0,*51
1487793678.59,15711,10.69,72260.3,-3.35,-4.37,-4.41,0,*57
1487793679.81,15712,10.69,72236.8,-3.33,-4.37,-4.41,0,*52
1487793681.04,15713,10.69,72238.0,-3.33,-4.53,-4.61,0,*53
1487793682.26,15714,10.69,72234.5,-3.33,-4.53,-4.53,0,*55
1487793683.49,15715,10.69,72230.8,-3.33,-4.41,-4.53,0,*57
1487793684.71,15716,10.63,72196.8,-3.33,-4.41,-4.49,0,*5F
1487793685.94,15717,10.69,72240.5,-3.33,-4.37,-4.49,0,*5F
1487793687.14,15718,10.69,72210.0,-3.35,-4.37,-4.37,0,*5F
1487793688.36,15719,10.69,72232.3,-3.33,-4.37,-4.41,0,*59
1487793689.58,15720,10.63,72230.3,-3.33,-4.29,-4.41,0,*5C
1487793690.81,15721,10.69,72244.8,-3.33,-4.29,-4.29,0,*53
1487793692.04,15722,10.69,72252.0,-3.33,-4.29,-4.29,0,*50
1487793693.26,15723,10.63,72266.3,-3.33,-4.37,-4.41,0,*50
1487793694.49,15724,10.69,72274.0,-3.33,-4.29,-4.41,0,*58
1487793695.71,15725,10.69,72274.0,-3.33,-4.37,-4.37,0,*57
1487793696.91,15726,10.69,72278.0,-3.35,-4.37,-4.41,0,*53
1487793698.13,15727,10.69,72272.5,-3.33,-4.41,-4.41,0,*55
1487793699.36,15728,10.69,72272.0,-3.33,-4.41,-4.49,0,*52
1487793700.58,15729,10.69,72270.8,-3.33,-4.41,-4.41,0,*5B
1487793701.81,15730,10.69,72270.5,-3.33,-4.29,-4.41,0,*5D
1487793703.03,15731,10.69,72234.5,-3.33,-4.37,-4.41,0,*53
1487793704.25,15732,10.69,72228.0,-3.29,-4.33,-4.33,0,*5A
1487793705.48,15733,10.69,72228.5,-3.33,-4.41,-4.41,0,*50
1487793706.7,15734,10.69,72242.0,-3.33,-4.41,-4.49,0,*5F
1487793707.92,15735,10.63,72260.3,-3.33,-4.37,-4.41,0,*57
1487793709.15,15736,10.69,72232.5,-3.33,-4.37,-4.49,0,*5C
1487793710.37,15737,10.69,72200.5,-3.33,-4.49,-4.49,0,*54
1487793711.59,15738,10.69,72214.0,-3.33,-4.41,-4.49,0,*53
1487793712.81,15739,10.63,72232.3,-3.33,-4.49,-4.61,0,*50
1487793714.04,15740,10.63,72226.8,-3.33,-4.49,-4.53,0,*5F
1487793715.23,15741,10.69,72226.3,-3.35,-4.49,-4.49,0,*53
1487793716.46,15742,10.63,72228.3,-3.33,-4.41,-4.53,0,*55
1487793717.68,15743,10.69,72236.8,-3.33,-4.37,-4.41,0,*56
1487793718.88,15744,10.69,72254.5,-3.35,-4.41,-4.49,0,*5E
1487793720.08,15745,10.69,72264.3,-3.35,-4.49,-4.49,0,*57
1487793721.3,15746,10.69,72274.5,-3.33,-4.41,-4.49,0,*5A
1487793722.5,15747,10.63,72232.3,-3.35,-4.41,-4.49,0,*5D
1487793723.73,15748,10.69,72226.5,-3.33,-4.49,-4.53,0,*57
1487793724.93,15749,10.69,72238.0,-3.35,-4.53,-4.61,0,*5A
1487793726.13,15750,10.69,72258.0,-3.35,-4.49,-4.53,0,*58
1487793727.33,15751,10.63,72236.3,-3.35,-4.53,-4.61,0,*53
1487793728.53,15752,10.69,72260.3,-3.35,-4.41,-4.53,0,*52
1487793729.73,15753,10.69,72242.5,-3.35,-4.49,-4.53,0,*5B
1487793730.93,15754,10.69,72274.0,-3.35,-4.41,-4.41,0,*57
1487793732.13,15755,10.69,72284.0,-3.35,-4.41,-4.41,0,*56
1487793733.33,15756,10.69,72294.0,-3.35,-4.41,-4.41,0,*55
1487793734.53,15757,10.63,72282.0,-3.35,-4.41,-4.49,0,*5C
1487793735.73,15758,10.69,72276.5,-3.35,-4.49,-4.53,0,*50
1487793736.93,15759,10.69,72274.5,-3.35,-4.41,-4.53,0,*59
1487793738.13,15760,10.69,72274.5,-3.35,-4.49,-4.53,0,*5B
1487793739.36,15761,10.69,72270.0,-3.33,-4.49,-4.61,0,*5D
1487793740.58,15762,10.63,72262.3,-3.33,-4.53,-4.53,0,*54
1487793741.81,15763,10.69,72266.3,-3.33,-4.49,-4.61,0,*5F
1487793743.01,15764,10.69,72266.3,-3.35,-4.49,-4.53,0,*5F
1487793744.23,15765,10.69,72272.8,-3.33,-4.61,-4.61,0,*53
1487793745.44,15766,10.69,72262.0,-3.35,-4.61,-4.61,0,*56
1487793746.64,15767,10.69,72262.3,-3.35,-4.61,-4.65,0,*53
1487793747.84,15768,10.69,72268.8,-3.35,-4.49,-4.53,0,*53
1487793749.04,15769,10.69,72264.0,-3.35,-4.49,-4.53,0,*52
1487793750.27,15770,10.69,72262.0,-3.37,-4.57,-4.57,0,*53
1487793751.5,15771,10.69,72252.5,-3.37,-4.53,-4.57,0,*56
1487793752.72,15772,10.69,72254.5,-3.37,-4.33,-4.41,0,*54
1487793753.95,15773,10.69,72260.0,-3.37,-4.41,-4.41,0,*50
1487793755.15,15774,10.69,72272.8,-3.35,-4.41,-4.37,0,*54
1487793756.35,15775,10.69,72280.8,-3.35,-4.41,-4.41,0,*54
1487793757.57,15776,10.69,72280.0,-3.33,-4.37,-4.29,0,*5E
1487793758.78,15777,10.69,72286.8,-3.35,-4.29,-4.29,0,*56
1487793759.98,15778,10.69,72296.5,-3.35,-4.25,-4.29,0,*55
1487793761.19,15779,10.69,72296.5,-3.35,-4.25,-4.37,0,*5B
1487793762.42,15780,10.69,72298.8,-3.33,-4.29,-4.41,0,*56
1487793763.64,15781,10.69,72296.0,-3.37,-4.41,-4.45,0,*59
1487793764.84,15782,10.63,72292.5,-3.35,-4.29,-4.29,0,*5C
1487793766.05,15783,10.69,72300.3,-3.35,-4.17,-4.29,0,*50
1487793767.25,15784,10.69,72302.5,-3.35,-4.17,-4.29,0,*57
1487793768.45,15785,10.69,72296.5,-3.35,-4.37,-4.37,0,*5B
1487793769.65,15786,10.69,72288.3,-3.35,-4.49,-4.53,0,*53
1487793770.84,15787,10.69,72284.3,-3.35,-4.49,-4.49,0,*59
1487793772.04,15788,10.69,72282.5,-3.35,-4.37,-4.49,0,*5F
1487793773.25,15789,10.69,72278.8,-3.35,-4.41,-4.53,0,*54
1487793774.44,15790,10.69,72272.0,-3.35,-4.41,-4.49,0,*57
1487793775.64,15791,10.69,72272.5,-3.35,-4.53,-4.53,0,*5E
1487793776.87,15792,10.69,72270.5,-3.33,-4.41,-4.41,0,*5B
1487793778.07,15793,10.69,72270.5,-3.35,-4.29,-4.41,0,*52
1487793779.28,15794,10.69,72260.8,-3.35,-4.29,-4.37,0,*54
1487793780.5,15795,10.69,72270.3,-3.33,-4.37,-4.37,0,*5C
1487793781.7,15796,10.69,72266.5,-3.35,-4.41,-4.41,0,*59
1487793782.9,15797,10.69,72262.3,-3.35,-4.37,-4.49,0,*51
1487793784.1,15798,10.69,72268.3,-3.35,-4.29,-4.25,0,*5B
1487793785.31,15799,10.69,72264.3,-3.35,-4.17,-4.37,0,*54
1487793786.51,15800,10.69,72278.0,-3.35,-4.25,-4.29,0,*55
1487793787.74,15801,10.63,72278.8,-3.33,-4.17,-4.25,0,*5F
1487793788.97,15802,10.69,72282.5,-3.33,-4.25,-4.37,0,*5E
1487793790.2,15803,10.69,72290.5,-3.33,-4.25,-4.29,0,*50
1487793791.44,15804,10.69,72290.0,-3.33,-4.25,-4.37,0,*58
1487793792.66,15805,10.69,72288.8,-3.33,-4.29,-4.29,0,*5A
1487793793.89,15806,10.69,72292.8,-3.33,-4.25,-4.25,0,*59
1487793795.09,15807,10.69,72296.3,-3.35,-4.37,-4.29,0,*51
1487793796.3,15808,10.69,72288.8,-3.35,-4.29,-4.29,0,*51
1487793797.52,15809,10.69,72294.0,-3.33,-4.37,-4.29,0,*59
1487793798.75,15810,10.69,72294.0,-3.33,-4.29,-4.25,0,*52
1487793799.96,15811,10.69,72294.0,-3.35,-4.29,-4.29,0,*59
1487793801.18,15812,10.69,72294.5,-3.33,-4.17,-4.25,0,*5D
1487793802.39,15813,10.63,72290.8,-3.35,-4.25,-4.25,0,*5B
1487793803.6,15814,10.69,72288.8,-3.35,-4.25,-4.29,0,*50
1487793804.8,15815,10.69,72288.5,-3.35,-4.29,-4.37,0,*52
1487793806.01,15816,10.69,72290.5,-3.35,-4.29,-4.29,0,*5E
1487793807.23,15817,10.69,72294.0,-3.33,-4.29,-4.29,0,*59
1487793808.44,15818,10.69,72302.8,-3.35,-4.25,-4.37,0,*53
1487793809.67,15819,10.63,72298.3,-3.33,-4.25,-4.29,0,*5B
1487793810.9,15820,10.69,72306.3,-3.33,-4.25,-4.37,0,*5E
1487793812.11,15821,10.69,72308.0,-3.35,-4.29,-4.37,0,*55
1487793813.31,15822,10.69,72310.3,-3.35,-4.29,-4.29,0,*59
1487793814.54,15823,10.69,72308.3,-3.33,-4.29,-4.37,0,*51
1487793815.76,15824,10.63,72292.5,-3.33,-4.37,-4.49,0,*50
1487793816.96,15825,10.69,72292.0,-3.35,-4.37,-4.29,0,*51
1487793818.17,15826,10.69,72290.8,-3.35,-4.29,-4.37,0,*52
1487793819.37,15827,10.69,72290.3,-3.35,-4.25,-4.25,0,*5C
1487793820.58,15828,10.63,72282.3,-3.35,-4.25,-4.25,0,*53
1487793821.78,15829,10.69,72284.5,-3.35,-4.37,-4.37,0,*52
1487793822.99,15830,10.69,72290.5,-3.35,-4.29,-4.37,0,*55
1487793824.22,15831,10.63,72296.3,-3.33,-4.25,-4.29,0,*51
1487793825.45,15832,10.69,72304.8,-3.33,-4.25,-4.37,0,*5D
1487793826.66,15833,10.69,72302.5,-3.35,-4.25,-4.29,0,*55
1487793827.89,15834,10.63,72314.8,-3.33,-4.29,-4.37,0,*57
1487793829.12,15835,10.69,72322.3,-3.33,-4.25,-4.29,0,*55
1487793830.35,15836,10.63,72314.3,-3.33,-4.25,-4.29,0,*56
1487793831.55,15837,10.69,72310.8,-3.35,-4.29,-4.37,0,*52
1487793832.78,15838,10.69,72306.3,-3.33,-4.29,-4.37,0,*5B
1487793833.98,15839,10.69,72304.0,-3.35,-4.41,-4.37,0,*52
1487793835.18,15840,10.69,72306.3,-3.35,-4.41,-4.49,0,*55
1487793836.38,15841,10.69,72302.0,-3.35,-4.37,-4.41,0,*5D
1487793837.61,15842,10.69,72292.3,-3.33,-4.29,-4.41,0,*57
1487793838.81,15843,10.69,72276.3,-3.35,-4.37,-4.41,0,*5F
1487793840.0,15844,10.69,72264.3,-3.35,-4.41,-4.49,0,*51
1487793841.23,15845,10.69,72240.5,-3.33,-4.49,-4.53,0,*55
1487793842.43,15846,10.63,72252.3,-3.35,-4.53,-4.53,0,*5B
1487793843.63,15847,10.69,72236.0,-3.35,-4.53,-4.53,0,*5A
1487793844.83,15848,10.69,72242.3,-3.35,-4.49,-4.53,0,*5E
1487793846.03,15849,10.69,72228.0,-3.35,-4.49,-4.53,0,*5F
1487793847.23,15850,10.63,72216.8,-3.35,-4.41,-4.53,0,*5F
1487793848.43,15851,10.69,72222.0,-3.35,-4.53,-4.53,0,*5D
1487793849.63,15852,10.69,72244.8,-3.35,-4.49,-4.53,0,*55
1487793850.83,15853,10.69,72226.8,-3.35,-4.49,-4.53,0,*54
1487793852.04,15854,10.63,72226.3,-3.35,-4.53,-4.61,0,*59
1487793853.27,15855,10.69,72214.8,-3.37,-4.57,-4.65,0,*5A
1487793854.5,15856,10.63,72224.8,-3.37,-4.57,-4.65,0,*59
1487793855.72,15857,10.69,72262.0,-3.37,-4.53,-4.57,0,*5D
1487793856.95,15858,10.69,72268.3,-3.37,-4.53,-4.53,0,*56
1487793858.16,15859,10.69,72274.5,-3.37,-4.45,-4.45,0,*57
1487793859.38,15860,10.69,72266.5,-3.37,-4.53,-4.53,0,*5D
1487793860.58,15861,10.69,72282.8,-3.35,-4.49,-4.61,0,*54
1487793861.78,15862,10.69,72286.3,-3.35,-4.41,-4.49,0,*55
1487793862.98,15863,10.69,72266.3,-3.35,-4.41,-4.41,0,*5C
1487793864.19,15864,10.69,72282.8,-3.35,-4.29,-4.41,0,*55
1487793865.39,15865,10.69,72272.3,-3.35,-4.41,-4.49,0,*52
1487793866.58,15866,10.69,72276.3,-3.35,-4.41,-4.41,0,*59
1487793867.79,15867,10.69,72282.0,-3.35,-4.29,-4.29,0,*58
1487793869.01,15868,10.69,72290.5,-3.37,-4.41,-4.41,0,*55
1487793870.24,15869,10.69,72282.3,-3.37,-4.53,-4.53,0,*54
1487793871.46,15870,10.69,72276.5,-3.37,-4.45,-4.53,0,*5B
1487793872.66,15871,10.69,72272.3,-3.35,-4.29,-4.37,0,*50
1487793873.89,15872,10.69,72286.3,-3.37,-4.29,-4.33,0,*55
1487793875.12,15873,10.69,72286.0,-3.37,-4.33,-4.41,0,*5A
1487793876.32,15874,10.69,72294.0,-3.35,-4.41,-4.41,0,*5A
1487793877.52,15875,10.69,72296.3,-3.35,-4.37,-4.37,0,*5B
1487793878.72,15876,10.69,72298.8,-3.35,-4.37,-4.37,0,*58
1487793879.94,15877,10.69,72276.0,-3.33,-4.41,-4.41,0,*5F
1487793881.14,15878,10.69,72270.5,-3.35,-4.41,-4.41,0,*56
1487793882.37,15879,10.69,72262.3,-3.37,-4.33,-4.45,0,*54
1487793883.56,15880,10.69,72288.8,-3.35,-4.49,-4.49,0,*51
1487793884.76,15881,10.69,72284.3,-3.35,-4.41,-4.49,0,*58
1487793885.96,15882,10.69,72282.5,-3.35,-4.41,-4.49,0,*5B
1487793887.16,15883,10.69,72294.0,-3.35,-4.41,-4.49,0,*5A
1487793888.38,15884,10.69,72290.5,-3.37,-4.53,-4.45,0,*50
1487793889.59,15885,10.69,72310.3,-3.37,-4.45,-4.45,0,*56
1487793890.79,15886,10.69,72316.0,-3.35,-4.49,-4.49,0,*57
1487793892.02,15887,10.69,72324.3,-3.37,-4.33,-4.41,0,*51
1487793893.21,15888,10.69,72318.0,-3.35,-4.37,-4.41,0,*58
1487793894.44,15889,10.69,72318.3,-3.37,-4.33,-4.33,0,*5A
1487793895.67,15890,10.69,72318.0,-3.37,-4.41,-4.53,0,*51
1487793896.9,15891,10.69,72324.3,-3.37,-4.57,-4.57,0,*53
1487793898.1,15892,10.69,72332.8,-3.35,-4.41,-4.41,0,*52
1487793899.31,15893,10.69,72338.5,-3.35,-4.25,-4.37,0,*50
1487793900.54,15894,10.69,72340.5,-3.33,-4.25,-4.29,0,*5E
1487793901.77,15895,10.69,72336.8,-3.37,-4.33,-4.29,0,*5C
1487793902.98,15896,10.69,72324.3,-3.35,-4.25,-4.25,0,*56
1487793904.21,15897,10.69,72312.3,-3.37,-4.21,-4.29,0,*5D
1487793905.44,15898,10.69,72306.3,-3.37,-4.29,-4.41,0,*54
1487793906.66,15899,10.69,72304.0,-3.37,-4.29,-4.33,0,*50
1487793907.88,15900,10.69,72312.0,-3.37,-4.41,-4.41,0,*5A
1487793909.09,15901,10.69,72310.8,-3.35,-4.29,-4.37,0,*56
1487793910.29,15902,10.69,72308.8,-3.35,-4.29,-4.29,0,*5A
1487793911.5,15903,10.69,72306.8,-3.35,-4.29,-4.29,0,*5B
1487793912.72,15904,10.69,72300.0,-3.37,-4.41,-4.41,0,*5E
1487793913.95,15905,10.69,72306.8,-3.37,-4.33,-4.33,0,*5F
1487793915.18,15906,10.69,72330.0,-3.37,-4.25,-4.29,0,*50
1487793916.38,15907,10.69,72334.5,-3.35,-4.17,-4.25,0,*5E
1487793917.59,15908,10.69,72338.3,-3.35,-4.25,-4.25,0,*50
1487793918.82,15909,10.69,72338.3,-3.37,-4.29,-4.33,0,*58
1487793920.04,15910,10.69,72336.0,-3.37,-4.41,-4.41,0,*5B
1487793921.27,15911,10.69,72336.8,-3.37,-4.33,-4.41,0,*5F
1487793922.5,15912,10.69,72328.8,-3.37,-4.21,-4.33,0,*5A
1487793923.71,15913,10.69,72328.3,-3.35,-4.25,-4.29,0,*56
1487793924.91,15914,10.69,72326.8,-3.35,-4.29,-4.29,0,*5D
1487793926.13,15915,10.69,72312.0,-3.33,-4.37,-4.37,0,*5A
1487793927.33,15916,10.69,72314.0,-3.35,-4.37,-4.37,0,*5F
1487793928.54,15917,10.69,72312.0,-3.35,-4.25,-4.29,0,*52
1487793929.74,15918,10.63,72308.5,-3.35,-4.29,-4.37,0,*5E
1487793930.95,15919,10.69,72312.0,-3.35,-4.29,-4.41,0,*5E
1487793932.14,15920,10.69,72320.0,-3.35,-4.37,-4.41,0,*5B
1487793933.35,15921,10.69,72306.5,-3.35,-4.29,-4.41,0,*55
1487793934.55,15922,10.63,72288.8,-3.35,-4.29,-4.41,0,*56
1487793935.75,15923,10.69,72286.5,-3.35,-4.37,-4.37,0,*59
1487793936.95,15924,10.69,72284.8,-3.35,-4.29,-4.29,0,*5E
1487793938.15,15925,10.69,72254.8,-3.35,-4.37,-4.37,0,*5F
1487793939.35,15926,10.69,72240.8,-3.35,-4.41,-4.49,0,*54
1487793940.55,15927,10.69,72262.8,-3.35,-4.41,-4.41,0,*5D
1487793941.76,15928,10.69,72238.3,-3.35,-4.29,-4.41,0,*5C
1487793942.96,15929,10.69,72260.0,-3.35,-4.25,-4.25,0,*53
1487793944.17,15930,10.69,72274.5,-3.35,-4.29,-4.37,0,*54
1487793945.37,15931,10.69,72284.3,-3.35,-4.29,-4.37,0,*55
1487793946.6,15932,10.69,72294.3,-3.33,-4.41,-4.53,0,*5C
1487793947.82,15933,10.69,72306.0,-3.33,-4.41,-4.49,0,*56
1487793949.02,15934,10.63,72276.0,-3.35,-4.37,-4.41,0,*5E
1487793950.22,15935,10.69,72280.3,-3.35,-4.37,-4.37,0,*5E
1487793951.44,15936,10.69,72278.8,-3.37,-4.29,-4.33,0,*54
1487793952.67,15937,10.69,72278.5,-3.37,-4.29,-4.33,0,*55
1487793953.87,15938,10.69,72284.3,-3.35,-4.17,-4.29,0,*5E
1487793955.07,15939,10.69,72264.8,-3.35,-4.37,-4.37,0,*52
1487793956.28,15940,10.69,72270.3,-3.35,-4.29,-4.37,0,*53
1487793957.48,15941,10.69,72280.5,-3.35,-4.29,-4.29,0,*5D
1487793958.68,15942,10.69,72310.0,-3.35,-4.29,-4.29,0,*5E
1487793959.89,15943,10.69,72322.5,-3.35,-4.17,-4.25,0,*5E
1487793961.09,15944,10.69,72330.8,-3.35,-4.17,-4.29,0,*55
1487793962.3,15945,10.69,72332.0,-3.35,-4.29,-4.37,0,*56
1487793963.49,15946,10.69,72310.0,-3.35,-4.37,-4.41,0,*5B
1487793964.7,15947,10.69,72302.0,-3.35,-4.29,-4.41,0,*55
1487793965.9,15948,10.69,72290.3,-3.35,-4.17,-4.29,0,*59
1487793967.1,15949,10.69,72288.5,-3.35,-4.17,-4.25,0,*54
1487793968.31,15950,10.63,72284.3,-3.35,-4.17,-4.25,0,*5C
1487793969.5,15951,10.69,72288.5,-3.35,-4.17,-4.17,0,*5C
1487793970.71,15952,10.69,72304.5,-3.35,-4.25,-4.37,0,*5C
1487793971.94,15953,10.69,72298.5,-3.33,-4.25,-4.29,0,*54
1487793973.15,15954,10.69,72314.3,-3.35,-4.29,-4.37,0,*56
1487793974.35,15955,10.69,72316.3,-3.35,-4.29,-4.37,0,*57
1487793975.55,15956,10.69,72302.0,-3.35,-4.37,-4.49,0,*52
1487793976.74,15957,10.69,72296.5,-3.35,-4.37,-4.41,0,*5B
1487793977.97,15958,10.69,72294.8,-3.33,-4.29,-4.41,0,*5D
1487793979.18,15959,10.69,72298.3,-3.35,-4.29,-4.37,0,*5B
1487793980.37,15960,10.69,72296.5,-3.35,-4.37,-4.41,0,*5F
1487793981.59,15961,10.69,72296.3,-3.33,-4.37,-4.49,0,*50
1487793982.79,15962,10.69,72288.5,-3.35,-4.37,-4.49,0,*55
1487793983.99,15963,10.69,72274.0,-3.35,-4.37,-4.41,0,*5C
1487793985.18,15964,10.69,72278.3,-3.35,-4.49,-4.41,0,*52
1487793986.41,15965,10.69,72272.5,-3.33,-4.41,-4.41,0,*5D
1487793987.61,15966,10.69,72282.0,-3.35,-4.49,-4.49,0,*58
1487793988.8,15967,10.69,72292.8,-3.35,-4.41,-4.49,0,*51
1487793990.0,15968,10.69,72292.3,-3.35,-4.37,-4.41,0,*57
1487793991.2,15969,10.69,72278.8,-3.35,-4.37,-4.41,0,*56
1487793992.4,15970,10.69,72276.3,-3.35,-4.29,-4.37,0,*50
1487793993.6,15971,10.69,72278.8,-3.35,-4.37,-4.41,0,*5F
1487793994.8,15972,10.69,72274.8,-3.35,-4.37,-4.49,0,*54
1487793996.0,15973,10.69,72264.5,-3.35,-4.49,-4.53,0,*57
1487793997.22,15974,10.69,72284.3,-3.33,-4.49,-4.53,0,*56
1487793998.42,15975,10.69,72292.0,-3.35,-4.41,-4.41,0,*5A
1487793999.63,15976,10.69,72294.0,-3.35,-4.29,-4.29,0,*59
1487794000.83,15977,10.69,72294.3,-3.35,-4.29,-4.29,0,*58
1487794002.03,15978,10.69,72304.5,-3.35,-4.37,-4.37,0,*57
1487794003.23,15979,10.69,72308.8,-3.35,-4.37,-4.41,0,*57
1487794004.43,15980,10.69,72310.5,-3.35,-4.25,-4.29,0,*5C
1487794005.64,15981,10.63,72312.5,-3.35,-4.17,-4.29,0,*5C
1487794006.83,15982,10.69,72318.5,-3.35,-4.17,-4.17,0,*52
1487794008.04,15983,10.69,72324.0,-3.35,-4.17,-4.25,0,*52
1487794009.27,15984,10.69,72326.3,-3.33,-4.17,-4.25,0,*53
1487794010.47,15985,10.63,72322.8,-3.35,-4.25,-4.25,0,*55
1487794011.7,15986,10.69,72332.8,-3.33,-4.25,-4.25,0,*50
1487794012.9,15987,10.69,72336.5,-3.35,-4.25,-4.17,0,*56
1487794014.13,15988,10.69,72336.5,-3.33,-4.17,-4.25,0,*5F
1487794015.36,15989,10.69,72344.3,-3.33,-4.17,-4.25,0,*5E
1487794016.58,15990,10.69,72348.8,-3.33,-4.17,-4.17,0,*57
1487794017.8,15991,10.69,72360.3,-3.33,-4.17,-4.17,0,*56
1487794019.03,15992,10.69,72366.0,-3.33,-4.25,-4.25,0,*55
1487794020.26,15993,10.69,72374.8,-3.33,-4.17,-4.25,0,*55
1487794021.49,15994,10.69,72376.0,-3.33,-4.29,-4.25,0,*5F
1487794022.69,15995,10.69,72372.8,-3.35,-4.25,-4.25,0,*54
1487794023.89,15996,10.69,72380.0,-3.35,-4.37,-4.37,0,*57
1487794025.12,15997,10.69,72376.8,-3.33,-4.37,-4.49,0,*59
1487794026.34,15998,10.69,72358.0,-3.33,-4.37,-4.41,0,*5E
1487794027.57,15999,10.69,72358.8,-3.33,-4.25,-4.41,0,*5C
1487794028.79,16000,10.69,72334.5,-3.33,-4.17,-4.37,0,*56
1487794030.03,16001,10.69,72298.5,-3.33,-4.25,-4.29,0,*59
1487794031.25,16002,10.69,72304.5,-3.33,-4.41,-4.41,0,*56
1487794032.45,16003,10.69,72278.8,-3.35,-4.37,-4.61,0,*52
1487794033.67,16004,10.69,72294.5,-3.33,-4.41,-4.41,0,*50
1487794034.87,16005,10.69,72300.0,-3.35,-4.41,-4.49,0,*5F
1487794036.1,16006,10.69,72300.0,-3.33,-4.41,-4.41,0,*52
1487794037.32,16007,10.69,72316.5,-3.33,-4.37,-4.41,0,*52
1487794038.52,16008,10.63,72308.0,-3.35,-4.37,-4.41,0,*5B
1487794039.75,16009,10.69,72312.5,-3.33,-4.29,-4.37,0,*52
1487794040.97,16010,10.63,72288.8,-3.33,-4.37,-4.49,0,*5C
1487794042.19,16011,10.69,72294.3,-3.33,-4.49,-4.53,0,*5F
1487794043.39,16012,10.69,72288.5,-3.35,-4.49,-4.53,0,*5A
1487794044.61,16013,10.69,72296.0,-3.33,-4.49,-4.41,0,*5E
1487794045.82,16014,10.69,72298.0,-3.35,-4.29,-4.29,0,*57
1487794047.02,16015,10.69,72306.5,-3.35,-4.29,-4.29,0,*56
1487794048.25,16016,10.69,72314.5,-3.33,-4.29,-4.29,0,*53
1487794049.45,16017,10.69,72312.8,-3.35,-4.29,-4.37,0,*5B
1487794050.68,16018,10.69,72312.0,-3.33,-4.37,-4.37,0,*5D
1487794051.88,16019,10.69,72306.0,-3.35,-4.37,-4.37,0,*5A
1487794053.11,16020,10.69,72310.8,-3.33,-4.29,-4.29,0,*56
1487794054.34,16021,10.69,72316.3,-3.33,-4.25,-4.29,0,*5B
1487794055.57,16022,10.69,72324.0,-3.33,-4.25,-4.29,0,*58
1487794056.78,16023,10.69,72328.5,-3.35,-4.25,-4.29,0,*5F
1487794058.01,16024,10.69,72324.3,-3.33,-4.25,-4.29,0,*5E
1487794059.23,16025,10.69,72322.0,-3.33,-4.17,-4.29,0,*5E
1487794060.44,16026,10.63,72300.0,-3.35,-4.17,-4.29,0,*5B
1487794061.67,16027,10.69,72308.8,-3.33,-4.29,-4.29,0,*51
1487794062.89,16028,10.69,72336.0,-3.33,-4.29,-4.29,0,*5E
1487794064.12,16029,10.69,72340.5,-3.33,-4.29,-4.37,0,*50
1487794065.36,16030,10.69,72342.0,-3.33,-4.25,-4.29,0,*5B
1487794066.59,16031,10.69,72352.5,-3.33,-4.25,-4.29,0,*5A
1487794067.82,16032,10.69,72358.0,-3.33,-4.25,-4.25,0,*55
1487794069.05,16033,10.69,72374.8,-3.33,-4.25,-4.29,0,*58
1487794070.27,16034,10.69,72338.5,-3.33,-4.37,-4.37,0,*53
1487794071.49,16035,10.69,72294.8,-3.33,-4.49,-4.49,0,*52
1487794072.72,16036,10.69,72286.3,-3.33,-4.37,-4.37,0,*51
1487794073.94,16037,10.69,72288.8,-3.33,-4.37,-4.29,0,*5F
1487794075.16,16038,10.69,72292.0,-3.33,-4.37,-4.41,0,*5E
1487794076.38,16039,10.69,72276.8,-3.33,-4.37,-4.41,0,*5F
1487794077.58,16040,10.69,72274.5,-3.35,-4.49,-4.49,0,*56
1487794078.8,16041,10.69,72280.3,-3.33,-4.41,-4.49,0,*59
1487794080.02,16042,10.69,72282.3,-3.33,-4.49,-4.49,0,*52
1487794081.25,16043,10.69,72306.5,-3.33,-4.41,-4.53,0,*50
1487794082.48,16044,10.69,72308.5,-3.33,-4.41,-4.41,0,*54
1487794083.68,16045,10.69,72308.8,-3.35,-4.49,-4.53,0,*58
1487794084.9,16046,10.69,72320.3,-3.33,-4.37,-4.41,0,*57
1487794086.1,16047,10.69,72318.0,-3.35,-4.29,-4.41,0,*5F
1487794087.3,16048,10.69,72296.3,-3.35,-4.49,-4.49,0,*5E
1487794088.52,16049,10.69,72304.3,-3.33,-4.49,-4.49,0,*59
1487794089.72,16050,10.69,72312.3,-3.35,-4.41,-4.53,0,*54
1487794090.94,16051,10.63,72318.3,-3.33,-4.41,-4.49,0,*58
1487794092.17,16052,10.69,72338.3,-3.33,-4.37,-4.49,0,*5A
1487794093.39,16053,10.69,72346.3,-3.33,-4.41,-4.49,0,*5A
1487794094.61,16054,10.69,72322.3,-3.33,-4.37,-4.49,0,*5C
1487794095.84,16055,10.69,72320.0,-3.33,-4.37,-4.53,0,*56
1487794097.06,16056,10.69,72310.8,-3.33,-4.49,-4.61,0,*5D
1487794098.26,16057,10.69,72292.0,-3.35,-4.49,-4.65,0,*5E
1487794099.46,16058,10.69,72286.8,-3.35,-4.53,-4.65,0,*5A
1487794100.68,16059,10.69,72276.5,-3.33,-4.41,-4.41,0,*58
1487794101.91,16060,10.69,72256.8,-3.33,-4.49,-4.53,0,*59